| time (UTC) | temp F | wind direction | speed MPH | gust MPH | rain 1hr in | rain 24hr in | rain mn in | humidity % | barometer mb |
| 20260831103203 | 74 | 120 | 0.0 | 0.0 | 0.00 | 0.18 | 0.00 | 74 | 1013.2 |
| 20260831102704 | 74 | 120 | 0.0 | 0.0 | 0.00 | 0.18 | 0.00 | 75 | 1013.2 |
| 20260831102204 | 74 | 120 | 0.0 | 0.0 | 0.00 | 0.18 | 0.00 | 76 | 1013.2 |
| 20260831101704 | 74 | 120 | 0.0 | 0.0 | 0.00 | 0.18 | 0.00 | 75 | 1013.2 |
| 20260831101204 | 74 | 120 | 0.0 | 0.0 | 0.00 | 0.18 | 0.00 | 75 | 1013.0 |
| 20260831094704 | 73 | 120 | 0.0 | 0.0 | 0.00 | 0.18 | 0.00 | 78 | 1013.0 |
| 20260831094203 | 73 | 120 | 0.0 | 0.0 | 0.00 | 0.18 | 0.00 | 78 | 1013.2 |
| 20260831093704 | 73 | 120 | 0.0 | 0.0 | 0.00 | 0.18 | 0.00 | 80 | 1013.2 |
| 20260831093203 | 73 | 120 | 0.0 | 0.0 | 0.00 | 0.18 | 0.00 | 80 | 1013.1 |
| 20260831092703 | 73 | 120 | 0.0 | 0.0 | 0.00 | 0.18 | 0.00 | 81 | 1013.2 |
| 20260831092203 | 73 | 120 | 0.0 | 0.0 | 0.00 | 0.18 | 0.00 | 82 | 1013.2 |
| 20260831091704 | 73 | 120 | 0.0 | 0.0 | 0.00 | 0.18 | 0.00 | 82 | 1013.1 |
| 20260831091204 | 73 | 120 | 0.0 | 0.0 | 0.00 | 0.18 | 0.00 | 83 | 1013.1 |
| 20260831090703 | 73 | 120 | 0.0 | 0.0 | 0.00 | 0.18 | 0.00 | 84 | 1013.1 |
| 20260831090204 | 73 | 120 | 0.0 | 0.0 | 0.00 | 0.18 | 0.00 | 85 | 1013.1 |
| 20260831085204 | 72 | 120 | 0.0 | 0.0 | 0.00 | 0.18 | 0.00 | 87 | 1013.3 |
| 20260831084703 | 72 | 120 | 0.0 | 0.0 | 0.00 | 0.18 | 0.00 | 88 | 1013.3 |
| 20260831084203 | 72 | 120 | 0.0 | 0.0 | 0.00 | 0.18 | 0.00 | 90 | 1013.3 |
| 20260831083204 | 72 | 120 | 0.0 | 0.0 | 0.00 | 0.18 | 0.00 | 92 | 1013.3 |
| 20260831082703 | 72 | 120 | 0.0 | 0.0 | 0.00 | 0.18 | 0.00 | 92 | 1013.4 |
| 20260831081704 | 72 | 120 | 0.0 | 0.0 | 0.00 | 0.18 | 0.00 | 92 | 1013.4 |
| 20260831080703 | 72 | 120 | 0.0 | 0.0 | 0.00 | 0.18 | 0.00 | 92 | 1013.4 |
| 20260831080204 | 72 | 120 | 0.0 | 0.0 | 0.00 | 0.18 | 0.00 | 92 | 1013.4 |
| 20260831075704 | 73 | 120 | 0.0 | 0.0 | 0.00 | 0.18 | 0.00 | 92 | 1013.4 |
| 20260831075203 | 73 | 120 | 0.0 | 0.0 | 0.00 | 0.18 | 0.00 | 92 | 1013.6 |
| 20260831074703 | 73 | 120 | 0.0 | 0.0 | 0.00 | 0.18 | 0.00 | 92 | 1013.6 |
| 20260831074203 | 73 | 120 | 0.0 | 0.0 | 0.00 | 0.18 | 0.00 | 92 | 1013.6 |
| 20260831072704 | 73 | 120 | 0.0 | 0.0 | 0.00 | 0.18 | 0.00 | 93 | 1013.7 |
| 20260831072204 | 73 | 120 | 0.0 | 0.0 | 0.00 | 0.18 | 0.00 | 92 | 1013.8 |
| 20260831071203 | 73 | 120 | 0.0 | 0.0 | 0.00 | 0.18 | 0.00 | 92 | 1013.9 |
| 20260831070203 | 73 | 120 | 0.0 | 0.0 | 0.00 | 0.18 | 0.00 | 91 | 1013.9 |
| 20260831065703 | 73 | 120 | 0.0 | 0.0 | 0.00 | 0.18 | 0.00 | 91 | 1013.9 |
| 20260831065204 | 73 | 120 | 0.0 | 0.0 | 0.00 | 0.18 | 0.00 | 91 | 1013.9 |
| 20260831064203 | 74 | 120 | 0.0 | 0.0 | 0.00 | 0.18 | 0.00 | 89 | 1013.8 |
| 20260831063704 | 74 | 120 | 0.0 | 0.0 | 0.00 | 0.18 | 0.00 | 89 | 1013.8 |
| 20260831063204 | 74 | 120 | 0.0 | 0.0 | 0.00 | 0.18 | 0.00 | 90 | 1013.8 |
| 20260831062703 | 74 | 120 | 0.0 | 0.0 | 0.00 | 0.18 | 0.00 | 89 | 1013.7 |
| 20260831062204 | 74 | 120 | 0.0 | 0.0 | 0.00 | 0.18 | 0.00 | 90 | 1013.7 |
| 20260831061203 | 74 | 120 | 0.0 | 0.0 | 0.00 | 0.18 | 0.00 | 91 | 1013.7 |
| 20260831060703 | 74 | 120 | 0.0 | 0.0 | 0.00 | 0.18 | 0.00 | 91 | 1013.7 |
| 20260831060204 | 74 | 120 | 0.0 | 0.0 | 0.00 | 0.18 | 0.00 | 91 | 1013.7 |
| 20260831055703 | 74 | 120 | 0.0 | 0.0 | 0.00 | 0.18 | 0.00 | 91 | 1013.8 |
| 20260831055203 | 74 | 120 | 0.0 | 0.0 | 0.00 | 0.18 | 0.00 | 91 | 1013.9 |
| 20260831054703 | 74 | 120 | 0.0 | 0.0 | 0.00 | 0.18 | 0.00 | 91 | 1013.9 |
| 20260831054204 | 74 | 120 | 0.0 | 0.0 | 0.00 | 0.18 | 0.00 | 91 | 1013.8 |
| 20260831053703 | 74 | 120 | 0.0 | 0.0 | 0.00 | 0.18 | 0.00 | 92 | 1013.8 |
| 20260831053203 | 74 | 120 | 0.0 | 0.0 | 0.00 | 0.18 | 0.00 | 92 | 1013.8 |
| 20260831052703 | 74 | 120 | 0.0 | 0.0 | 0.00 | 0.18 | 0.00 | 92 | 1013.7 |
| 20260831052203 | 74 | 120 | 0.0 | 0.0 | 0.00 | 0.18 | 0.00 | 92 | 1013.7 |
| 20260831051204 | 74 | 120 | 0.0 | 0.0 | 0.00 | 0.18 | 0.00 | 93 | 1013.9 |
| 20260831050704 | 74 | 120 | 0.0 | 0.0 | 0.00 | 0.18 | 0.00 | 93 | 1013.9 |
| 20260831050203 | 74 | 120 | 0.0 | 0.0 | 0.00 | 0.18 | 0.00 | 93 | 1014.0 |
| 20260831045704 | 74 | 120 | 0.0 | 0.0 | 0.00 | 0.18 | 0.18 | 93 | 1013.8 |
| 20260831045204 | 74 | 120 | 0.0 | 0.0 | 0.00 | 0.18 | 0.18 | 93 | 1013.8 |
| 20260831044703 | 74 | 120 | 0.0 | 0.0 | 0.00 | 0.18 | 0.18 | 93 | 1013.8 |
| 20260831044204 | 74 | 120 | 0.0 | 0.0 | 0.00 | 0.18 | 0.18 | 93 | 1013.8 |
| 20260831043703 | 74 | 120 | 0.0 | 0.0 | 0.00 | 0.18 | 0.18 | 93 | 1013.9 |
| 20260831043203 | 74 | 120 | 0.0 | 0.0 | 0.00 | 0.18 | 0.18 | 93 | 1013.9 |
| 20260831042704 | 74 | 120 | 0.0 | 0.0 | 0.00 | 0.18 | 0.18 | 94 | 1013.9 |
| 20260831042203 | 74 | 120 | 0.0 | 0.0 | 0.00 | 0.18 | 0.18 | 94 | 1014.1 |
| 20260831041703 | 74 | 120 | 0.0 | 0.0 | 0.00 | 0.18 | 0.18 | 93 | 1014.1 |
| 20260831040703 | 74 | 120 | 0.0 | 0.0 | 0.01 | 0.18 | 0.18 | 92 | 1014.2 |
| 20260831040203 | 74 | 120 | 0.0 | 0.0 | 0.02 | 0.18 | 0.18 | 93 | 1014.1 |
| 20260831035703 | 74 | 120 | 0.0 | 0.0 | 0.03 | 0.18 | 0.18 | 93 | 1013.8 |
| 20260831035204 | 74 | 120 | 0.0 | 0.0 | 0.03 | 0.18 | 0.18 | 93 | 1013.8 |
| 20260831034203 | 74 | 120 | 0.0 | 0.0 | 0.03 | 0.18 | 0.18 | 93 | 1013.7 |
| 20260831033703 | 74 | 120 | 0.0 | 0.0 | 0.03 | 0.18 | 0.18 | 93 | 1013.7 |
| 20260831033203 | 74 | 120 | 0.0 | 0.0 | 0.03 | 0.18 | 0.18 | 93 | 1013.9 |
| 20260831032704 | 74 | 120 | 0.0 | 0.0 | 0.03 | 0.18 | 0.18 | 92 | 1014.1 |
| 20260831032204 | 74 | 120 | 0.0 | 0.0 | 0.03 | 0.18 | 0.18 | 92 | 1014.2 |
| 20260831031703 | 74 | 120 | 0.0 | 0.0 | 0.03 | 0.18 | 0.18 | 92 | 1014.3 |
| 20260831031204 | 74 | 120 | 0.0 | 0.0 | 0.03 | 0.18 | 0.18 | 91 | 1014.4 |
| 20260831030703 | 74 | 120 | 0.0 | 0.0 | 0.02 | 0.17 | 0.17 | 91 | 1014.6 |
| 20260831030203 | 74 | 120 | 0.0 | 0.0 | 0.01 | 0.16 | 0.16 | 90 | 1014.7 |
| 20260831025204 | 74 | 120 | 0.0 | 0.0 | 0.00 | 0.15 | 0.15 | 90 | 1014.8 |
| 20260831024703 | 74 | 120 | 0.0 | 0.0 | 0.00 | 0.15 | 0.15 | 90 | 1014.8 |
| 20260831024204 | 74 | 120 | 0.0 | 0.0 | 0.00 | 0.15 | 0.15 | 90 | 1015.0 |
| 20260831023704 | 74 | 120 | 0.0 | 0.0 | 0.00 | 0.15 | 0.15 | 89 | 1015.1 |
| 20260831023203 | 74 | 120 | 0.0 | 0.0 | 0.00 | 0.15 | 0.15 | 90 | 1014.9 |
| 20260831022204 | 74 | 120 | 0.0 | 0.0 | 0.00 | 0.15 | 0.15 | 90 | 1014.9 |
| 20260831021203 | 74 | 120 | 0.0 | 0.0 | 0.00 | 0.15 | 0.15 | 90 | 1014.8 |
| 20260831020703 | 74 | 120 | 0.0 | 0.0 | 0.00 | 0.15 | 0.15 | 90 | 1014.8 |
| 20260831015204 | 74 | 120 | 0.0 | 0.0 | 0.00 | 0.15 | 0.15 | 90 | 1014.8 |
| 20260831014704 | 74 | 120 | 0.0 | 0.0 | 0.00 | 0.15 | 0.15 | 90 | 1014.8 |
| 20260831014203 | 74 | 120 | 0.0 | 0.0 | 0.00 | 0.15 | 0.15 | 90 | 1014.6 |
| 20260831013204 | 74 | 120 | 0.0 | 0.0 | 0.00 | 0.15 | 0.15 | 90 | 1014.7 |
| 20260831012703 | 74 | 120 | 0.0 | 0.0 | 0.00 | 0.15 | 0.15 | 89 | 1014.8 |
| 20260831012204 | 74 | 120 | 0.0 | 0.0 | 0.00 | 0.15 | 0.15 | 89 | 1014.8 |
| 20260831011703 | 74 | 120 | 0.0 | 0.0 | 0.00 | 0.15 | 0.15 | 89 | 1014.7 |
| 20260831010203 | 74 | 120 | 0.0 | 0.0 | 0.00 | 0.15 | 0.15 | 90 | 1014.5 |
| 20260831005704 | 74 | 120 | 0.0 | 0.0 | 0.00 | 0.15 | 0.15 | 90 | 1014.5 |
| 20260831005203 | 74 | 120 | 0.0 | 0.0 | 0.00 | 0.15 | 0.15 | 90 | 1014.5 |
| 20260831004703 | 74 | 120 | 0.0 | 0.0 | 0.00 | 0.15 | 0.15 | 90 | 1014.5 |
| 20260831004204 | 74 | 120 | 0.0 | 0.0 | 0.00 | 0.15 | 0.15 | 90 | 1014.5 |
| 20260831003703 | 74 | 120 | 0.0 | 0.0 | 0.00 | 0.15 | 0.15 | 90 | 1014.4 |
| 20260831002703 | 74 | 120 | 0.0 | 0.0 | 0.00 | 0.15 | 0.15 | 90 | 1014.5 |
| 20260831002203 | 74 | 120 | 0.0 | 0.0 | 0.01 | 0.15 | 0.15 | 90 | 1014.5 |
| 20260831001704 | 74 | 120 | 0.0 | 0.0 | 0.01 | 0.15 | 0.15 | 90 | 1014.6 |
| 20260831001203 | 74 | 120 | 0.0 | 0.0 | 0.01 | 0.15 | 0.15 | 91 | 1014.4 |
| 20260830235704 | 74 | 120 | 0.0 | 0.0 | 0.01 | 0.15 | 0.15 | 91 | 1014.2 |
| 20260830234703 | 74 | 120 | 0.0 | 0.0 | 0.02 | 0.15 | 0.15 | 91 | 1014.1 |
| 20260830234204 | 74 | 120 | 0.0 | 0.0 | 0.02 | 0.15 | 0.15 | 91 | 1014.0 |
| 20260830233703 | 74 | 120 | 0.0 | 0.0 | 0.02 | 0.15 | 0.15 | 90 | 1014.3 |
| 20260830232704 | 74 | 120 | 0.0 | 0.0 | 0.03 | 0.15 | 0.15 | 88 | 1014.6 |
| 20260830232204 | 74 | 120 | 0.0 | 0.0 | 0.02 | 0.14 | 0.14 | 88 | 1014.5 |
| 20260830231704 | 74 | 120 | 0.0 | 0.0 | 0.02 | 0.14 | 0.14 | 88 | 1014.4 |
| 20260830231204 | 74 | 120 | 0.0 | 0.0 | 0.02 | 0.14 | 0.14 | 88 | 1014.4 |
| 20260830230704 | 74 | 120 | 0.0 | 0.0 | 0.03 | 0.14 | 0.14 | 87 | 1014.6 |
| 20260830230204 | 74 | 120 | 0.0 | 0.0 | 0.03 | 0.14 | 0.14 | 87 | 1014.7 |
| 20260830225703 | 75 | 120 | 0.0 | 0.0 | 0.03 | 0.14 | 0.14 | 87 | 1014.7 |
| 20260830225203 | 75 | 120 | 0.0 | 0.0 | 0.02 | 0.13 | 0.13 | 86 | 1014.9 |
| 20260830224704 | 75 | 120 | 0.0 | 0.0 | 0.02 | 0.13 | 0.13 | 84 | 1014.9 |
| 20260830223204 | 75 | 120 | 0.0 | 0.0 | 0.01 | 0.12 | 0.12 | 82 | 1015.0 |
| 20260830222703 | 75 | 120 | 0.0 | 0.0 | 0.01 | 0.12 | 0.12 | 81 | 1015.0 |
| 20260830222204 | 76 | 120 | 0.0 | 0.0 | 0.01 | 0.12 | 0.12 | 80 | 1014.9 |
| 20260830221704 | 76 | 120 | 0.0 | 0.0 | 0.01 | 0.12 | 0.12 | 80 | 1014.9 |
| 20260830221203 | 76 | 120 | 0.0 | 0.0 | 0.01 | 0.12 | 0.12 | 79 | 1014.9 |
| 20260830220704 | 76 | 120 | 0.0 | 0.0 | 0.00 | 0.11 | 0.11 | 78 | 1015.0 |
| 20260830220203 | 76 | 120 | 0.0 | 0.0 | 0.00 | 0.12 | 0.11 | 77 | 1015.0 |
| 20260830215204 | 76 | 120 | 0.0 | 0.0 | 0.00 | 0.13 | 0.11 | 78 | 1014.9 |
| 20260830214703 | 76 | 120 | 0.0 | 0.0 | 0.00 | 0.13 | 0.11 | 78 | 1014.9 |
| 20260830214203 | 76 | 120 | 0.0 | 0.0 | 0.00 | 0.13 | 0.11 | 77 | 1014.9 |
| 20260830213704 | 77 | 120 | 0.0 | 0.0 | 0.00 | 0.13 | 0.11 | 77 | 1014.8 |
| 20260830213204 | 77 | 120 | 0.0 | 0.0 | 0.00 | 0.13 | 0.11 | 77 | 1014.8 |
| 20260830212703 | 77 | 120 | 0.0 | 0.0 | 0.00 | 0.13 | 0.11 | 75 | 1014.8 |
| 20260830210704 | 78 | 120 | 0.0 | 0.0 | 0.00 | 0.13 | 0.11 | 70 | 1015.0 |
| 20260830210204 | 79 | 120 | 0.0 | 0.0 | 0.00 | 0.13 | 0.11 | 70 | 1014.9 |
| 20260830205704 | 79 | 120 | 0.0 | 0.0 | 0.00 | 0.13 | 0.11 | 72 | 1015.0 |
| 20260830205204 | 79 | 120 | 0.0 | 0.0 | 0.00 | 0.13 | 0.11 | 72 | 1014.9 |
| 20260830204703 | 79 | 120 | 0.0 | 0.0 | 0.00 | 0.13 | 0.11 | 73 | 1014.9 |
| 20260830203704 | 79 | 120 | 0.0 | 0.0 | 0.00 | 0.13 | 0.11 | 73 | 1015.0 |
| 20260830203203 | 79 | 120 | 0.0 | 0.0 | 0.00 | 0.13 | 0.11 | 73 | 1015.1 |
| 20260830202704 | 79 | 120 | 0.0 | 0.0 | 0.00 | 0.13 | 0.11 | 71 | 1015.1 |
| 20260830202205 | 79 | 120 | 0.0 | 0.0 | 0.00 | 0.13 | 0.11 | 71 | 1015.2 |
| 20260830201703 | 79 | 120 | 0.0 | 0.0 | 0.00 | 0.13 | 0.11 | 70 | 1015.2 |
| 20260830201204 | 79 | 120 | 0.0 | 0.0 | 0.00 | 0.13 | 0.11 | 70 | 1015.1 |
| 20260830200704 | 79 | 120 | 0.0 | 0.0 | 0.00 | 0.13 | 0.11 | 72 | 1015.0 |
| 20260830200204 | 79 | 120 | 0.0 | 0.0 | 0.00 | 0.13 | 0.11 | 72 | 1015.0 |
| 20260830195704 | 79 | 120 | 0.0 | 0.0 | 0.00 | 0.13 | 0.11 | 70 | 1014.9 |
| 20260830195204 | 79 | 120 | 0.0 | 0.0 | 0.00 | 0.13 | 0.11 | 71 | 1014.8 |
| 20260830194703 | 79 | 120 | 0.0 | 0.0 | 0.00 | 0.13 | 0.11 | 70 | 1014.9 |
| 20260830194203 | 78 | 120 | 0.0 | 0.0 | 0.00 | 0.13 | 0.11 | 69 | 1014.8 |
| 20260830193703 | 78 | 120 | 0.0 | 0.0 | 0.00 | 0.13 | 0.11 | 70 | 1014.8 |
| 20260830193204 | 78 | 120 | 0.0 | 0.0 | 0.00 | 0.13 | 0.11 | 70 | 1014.7 |
| 20260830192704 | 78 | 120 | 0.0 | 0.0 | 0.00 | 0.13 | 0.11 | 71 | 1014.7 |
| 20260830191204 | 79 | 120 | 0.0 | 0.0 | 0.00 | 0.13 | 0.11 | 68 | 1014.8 |
| 20260830190703 | 79 | 120 | 0.0 | 0.0 | 0.00 | 0.13 | 0.11 | 66 | 1014.9 |
| 20260830190203 | 79 | 120 | 0.0 | 0.0 | 0.00 | 0.13 | 0.11 | 66 | 1014.9 |
| 20260830185704 | 79 | 120 | 0.0 | 0.0 | 0.00 | 0.13 | 0.11 | 66 | 1014.8 |
| 20260830185204 | 80 | 120 | 0.0 | 0.0 | 0.00 | 0.13 | 0.11 | 66 | 1014.8 |
| 20260830184704 | 80 | 120 | 0.0 | 0.0 | 0.00 | 0.13 | 0.11 | 66 | 1014.9 |
| 20260830184203 | 80 | 120 | 0.0 | 0.0 | 0.00 | 0.13 | 0.11 | 65 | 1015.0 |
| 20260830183703 | 80 | 120 | 0.0 | 0.0 | 0.00 | 0.13 | 0.11 | 65 | 1015.1 |
| 20260830183204 | 80 | 120 | 0.0 | 0.0 | 0.00 | 0.13 | 0.11 | 64 | 1015.3 |
| 20260830182704 | 81 | 120 | 0.0 | 0.0 | 0.00 | 0.13 | 0.11 | 62 | 1015.5 |
| 20260830182204 | 81 | 120 | 0.0 | 0.0 | 0.00 | 0.13 | 0.11 | 61 | 1015.0 |
| 20260830181704 | 82 | 120 | 0.0 | 0.0 | 0.00 | 0.13 | 0.11 | 59 | 1014.4 |
| 20260830181204 | 82 | 120 | 0.0 | 0.0 | 0.00 | 0.13 | 0.11 | 58 | 1014.0 |
| 20260830180704 | 83 | 120 | 0.0 | 0.0 | 0.00 | 0.13 | 0.11 | 57 | 1013.7 |
| 20260830175704 | 84 | 120 | 0.0 | 0.0 | 0.00 | 0.13 | 0.11 | 53 | 1013.7 |
| 20260830175203 | 85 | 120 | 0.0 | 0.0 | 0.00 | 0.13 | 0.11 | 54 | 1013.6 |
| 20260830174203 | 84 | 0 | 0.0 | 0.0 | 0.00 | 0.13 | 0.11 | 57 | 1013.7 |
| 20260830173703 | 83 | 0 | 0.0 | 0.0 | 0.00 | 0.13 | 0.11 | 58 | 1013.8 |
| 20260830172704 | 83 | 0 | 0.0 | 0.0 | 0.00 | 0.13 | 0.11 | 59 | 1013.9 |
| 20260830172203 | 82 | 0 | 0.0 | 0.0 | 0.00 | 0.13 | 0.11 | 59 | 1013.8 |
| 20260830171703 | 82 | 0 | 0.0 | 0.0 | 0.00 | 0.13 | 0.11 | 58 | 1013.9 |
| 20260830171204 | 83 | 0 | 0.0 | 0.0 | 0.00 | 0.13 | 0.11 | 60 | 1014.0 |
| 20260830170704 | 82 | 0 | 0.0 | 0.0 | 0.00 | 0.13 | 0.11 | 60 | 1013.9 |
| 20260830170204 | 81 | 0 | 0.0 | 0.0 | 0.00 | 0.13 | 0.11 | 62 | 1014.0 |
| 20260830165704 | 81 | 0 | 0.0 | 0.0 | 0.00 | 0.13 | 0.11 | 61 | 1014.1 |
| 20260830165204 | 82 | 0 | 0.0 | 0.0 | 0.00 | 0.13 | 0.11 | 60 | 1014.1 |
| 20260830163703 | 83 | 0 | 0.0 | 0.0 | 0.00 | 0.13 | 0.11 | 59 | 1014.0 |
| 20260830163203 | 83 | 0 | 0.0 | 0.0 | 0.00 | 0.13 | 0.11 | 59 | 1014.1 |
| 20260830162703 | 83 | 0 | 0.0 | 0.0 | 0.00 | 0.13 | 0.11 | 60 | 1014.0 |
| 20260830162203 | 82 | 0 | 0.0 | 0.0 | 0.00 | 0.13 | 0.11 | 61 | 1014.0 |
| 20260830161703 | 82 | 0 | 0.0 | 0.0 | 0.00 | 0.13 | 0.11 | 60 | 1014.0 |
| 20260830161203 | 82 | 0 | 0.0 | 0.0 | 0.00 | 0.13 | 0.11 | 62 | 1013.9 |
| 20260830160203 | 82 | 0 | 0.0 | 0.0 | 0.00 | 0.13 | 0.11 | 63 | 1014.0 |
| 20260830155703 | 81 | 0 | 0.0 | 0.0 | 0.00 | 0.13 | 0.11 | 62 | 1013.9 |
| 20260830155204 | 81 | 0 | 0.0 | 0.0 | 0.00 | 0.13 | 0.11 | 62 | 1014.0 |
| 20260830154704 | 80 | 0 | 0.0 | 0.0 | 0.00 | 0.13 | 0.11 | 65 | 1014.0 |
| 20260830154204 | 80 | 0 | 0.0 | 0.0 | 0.00 | 0.13 | 0.11 | 63 | 1014.0 |
| 20260830153203 | 80 | 0 | 0.0 | 0.0 | 0.00 | 0.13 | 0.11 | 67 | 1014.0 |
| 20260830152703 | 79 | 0 | 0.0 | 0.0 | 0.00 | 0.13 | 0.11 | 70 | 1014.0 |
| 20260830152205 | 78 | 0 | 0.0 | 0.0 | 0.00 | 0.13 | 0.11 | 71 | 1014.0 |
| 20260830151704 | 77 | 0 | 0.0 | 0.0 | 0.00 | 0.13 | 0.11 | 71 | 1014.0 |
| 20260830151204 | 77 | 0 | 0.0 | 0.0 | 0.00 | 0.13 | 0.11 | 73 | 1014.1 |
| 20260830150703 | 76 | 0 | 0.0 | 0.0 | 0.00 | 0.13 | 0.11 | 76 | 1014.1 |
| 20260830145704 | 75 | 0 | 0.0 | 0.0 | 0.00 | 0.13 | 0.11 | 78 | 1014.0 |
| 20260830144704 | 75 | 0 | 0.0 | 0.0 | 0.00 | 0.13 | 0.11 | 79 | 1014.0 |
| 20260830143703 | 74 | 0 | 0.0 | 0.0 | 0.00 | 0.13 | 0.11 | 83 | 1014.2 |
| 20260830143203 | 73 | 0 | 0.0 | 0.0 | 0.00 | 0.13 | 0.11 | 84 | 1014.2 |
| 20260830142204 | 72 | 0 | 0.0 | 0.0 | 0.00 | 0.13 | 0.11 | 86 | 1014.4 |
| 20260830141703 | 72 | 0 | 0.0 | 0.0 | 0.00 | 0.13 | 0.11 | 87 | 1014.5 |
| 20260830140703 | 71 | 0 | 0.0 | 0.0 | 0.00 | 0.13 | 0.11 | 91 | 1014.5 |
| 20260830140204 | 70 | 0 | 0.0 | 0.0 | 0.00 | 0.13 | 0.11 | 92 | 1014.3 |
| 20260830135704 | 70 | 0 | 0.0 | 0.0 | 0.00 | 0.13 | 0.11 | 91 | 1014.5 |
| 20260830134703 | 70 | 0 | 0.0 | 0.0 | 0.00 | 0.13 | 0.11 | 92 | 1014.3 |
| 20260830134203 | 69 | 0 | 0.0 | 0.0 | 0.00 | 0.13 | 0.11 | 92 | 1014.4 |
| 20260830133203 | 69 | 0 | 0.0 | 0.0 | 0.05 | 0.13 | 0.11 | 93 | 1014.4 |
| 20260830131704 | 69 | 0 | 0.0 | 0.0 | 0.09 | 0.13 | 0.11 | 92 | 1014.6 |
| 20260830131204 | 69 | 0 | 0.0 | 0.0 | 0.09 | 0.13 | 0.11 | 92 | 1014.8 |
| 20260830130704 | 69 | 0 | 0.0 | 0.0 | 0.09 | 0.13 | 0.11 | 93 | 1014.7 |
| 20260830125704 | 69 | 0 | 0.0 | 0.0 | 0.10 | 0.13 | 0.11 | 92 | 1015.0 |
| 20260830124704 | 69 | 0 | 0.0 | 0.0 | 0.11 | 0.13 | 0.11 | 92 | 1014.9 |
| 20260830123703 | 69 | 0 | 0.0 | 0.0 | 0.10 | 0.12 | 0.10 | 91 | 1015.3 |
| 20260830123204 | 69 | 0 | 0.0 | 0.0 | 0.06 | 0.08 | 0.06 | 90 | 1015.4 |
| 20260830122704 | 70 | 0 | 0.0 | 0.0 | 0.04 | 0.06 | 0.04 | 87 | 1015.5 |
| 20260830122205 | 70 | 0 | 0.0 | 0.0 | 0.03 | 0.05 | 0.03 | 86 | 1015.5 |
| 20260830120704 | 71 | 0 | 0.0 | 0.0 | 0.02 | 0.04 | 0.02 | 83 | 1015.5 |
| 20260830120204 | 71 | 0 | 0.0 | 0.0 | 0.02 | 0.04 | 0.02 | 81 | 1015.3 |
| 20260830115704 | 71 | 0 | 0.0 | 0.0 | 0.01 | 0.03 | 0.01 | 79 | 1015.1 |
| 20260830115204 | 71 | 0 | 0.0 | 0.0 | 0.00 | 0.02 | 0.00 | 78 | 1015.1 |
| 20260830114204 | 71 | 0 | 0.0 | 0.0 | 0.00 | 0.02 | 0.00 | 77 | 1015.3 |
| 20260830113703 | 71 | 0 | 0.0 | 0.0 | 0.00 | 0.02 | 0.00 | 76 | 1015.1 |
| 20260830113204 | 71 | 0 | 0.0 | 0.0 | 0.00 | 0.02 | 0.00 | 77 | 1015.0 |
| 20260830112704 | 71 | 0 | 0.0 | 0.0 | 0.00 | 0.02 | 0.00 | 78 | 1014.8 |
| 20260830111703 | 71 | 0 | 0.0 | 0.0 | 0.00 | 0.02 | 0.00 | 77 | 1014.7 |
| 20260830111203 | 71 | 0 | 0.0 | 0.0 | 0.00 | 0.02 | 0.00 | 78 | 1014.7 |
| 20260830110204 | 71 | 0 | 0.0 | 0.0 | 0.00 | 0.02 | 0.00 | 77 | 1014.5 |
| 20260830105703 | 72 | 0 | 0.0 | 0.0 | 0.00 | 0.02 | 0.00 | 78 | 1014.5 |
| 20260830105203 | 72 | 0 | 0.0 | 0.0 | 0.00 | 0.02 | 0.00 | 76 | 1014.5 |
| 20260830104204 | 73 | 0 | 0.0 | 0.0 | 0.00 | 0.02 | 0.00 | 72 | 1014.6 |